TimeCDT,TemperatureF,Dew PointF,Humidity,Sea Level PressureIn,VisibilityMPH,Wind Direction,Wind SpeedMPH,Gust SpeedMPH,PrecipitationIn,Events,Conditions,WindDirDegrees,DateUTC
12:53 AM,84.0,69.1,61,29.95,10.0,SSE,9.2,-,N/A,,Scattered Clouds,150,2013-07-08 05:53:00
1:53 AM,82.9,69.1,63,29.96,10.0,SE,8.1,-,N/A,,Scattered Clouds,140,2013-07-08 06:53:00
2:53 AM,81.0,69.1,67,29.96,10.0,SE,10.4,-,N/A,,Scattered Clouds,140,2013-07-08 07:53:00
3:53 AM,80.1,70.0,71,29.97,10.0,SSE,8.1,-,N/A,,Scattered Clouds,150,2013-07-08 08:53:00
4:53 AM,79.0,70.0,74,29.99,10.0,SSE,9.2,-,N/A,,Partly Cloudy,150,2013-07-08 09:53:00
5:53 AM,78.1,70.0,76,30.00,10.0,South,9.2,-,N/A,,Partly Cloudy,170,2013-07-08 10:53:00
6:53 AM,78.1,70.0,76,30.02,10.0,SSE,11.5,-,N/A,,Scattered Clouds,160,2013-07-08 11:53:00
7:53 AM,80.1,71.1,74,30.03,10.0,South,9.2,-,N/A,,Partly Cloudy,180,2013-07-08 12:53:00
8:44 AM,81.0,71.1,72,30.08,10.0,South,13.8,-,N/A,,Mostly Cloudy,190,2013-07-08 13:44:00
8:53 AM,81.0,71.1,72,30.06,10.0,South,11.5,-,N/A,,Mostly Cloudy,180,2013-07-08 13:53:00
9:53 AM,82.9,71.1,67,30.06,10.0,South,11.5,-,N/A,,Mostly Cloudy,180,2013-07-08 14:53:00
10:53 AM,86.0,71.1,61,30.05,10.0,SSW,8.1,-,N/A,,Mostly Cloudy,210,2013-07-08 15:53:00
11:53 AM,90.0,69.1,50,30.05,10.0,South,12.7,18.4,N/A,,Mostly Cloudy,190,2013-07-08 16:53:00
12:53 PM,91.0,68.0,47,30.03,10.0,SSW,13.8,19.6,N/A,,Mostly Cloudy,200,2013-07-08 17:53:00
1:53 PM,93.0,68.0,44,30.02,10.0,SSE,13.8,19.6,N/A,,Mostly Cloudy,160,2013-07-08 18:53:00
2:53 PM,95.0,66.0,38,30.01,10.0,South,9.2,17.3,N/A,,Mostly Cloudy,180,2013-07-08 19:53:00
3:53 PM,96.1,66.0,37,29.99,10.0,SSE,11.5,-,N/A,,Mostly Cloudy,160,2013-07-08 20:53:00
4:53 PM,96.1,64.9,36,29.97,10.0,SSE,12.7,18.4,N/A,,Mostly Cloudy,150,2013-07-08 21:53:00
5:53 PM,95.0,68.0,41,29.95,10.0,South,20.7,28.8,N/A,,Scattered Clouds,180,2013-07-08 22:53:00
6:53 PM,93.0,68.0,44,29.96,10.0,South,16.1,-,N/A,,Scattered Clouds,170,2013-07-08 23:53:00
7:53 PM,91.0,66.0,44,29.97,10.0,South,16.1,-,N/A,,Partly Cloudy,180,2013-07-09 00:53:00
8:53 PM,88.0,66.0,48,29.98,10.0,South,12.7,-,N/A,,Scattered Clouds,170,2013-07-09 01:53:00
9:53 PM,87.1,66.0,49,30.00,10.0,South,11.5,-,N/A,,Scattered Clouds,170,2013-07-09 02:53:00
10:53 PM,86.0,64.9,49,30.04,10.0,South,13.8,-,N/A,,Scattered Clouds,180,2013-07-09 03:53:00
11:53 PM,84.9,60.1,43,30.04,10.0,South,9.2,-,N/A,,Scattered Clouds,190,2013-07-09 04:53:00